AirNav   Air Wisconsin pilot careers
 
 1397 users online  

S68 Orofino Municipal Airport
Orofino, Idaho, USA

GOING TO OROFINO?


FAA INFORMATION EFFECTIVE 19 JULY 2018

Location

FAA Identifier: S68
Lat/Long: 46-29-28.6490N / 116-16-36.5020W
46-29.477483N / 116-16.608367W
46.4912914 / -116.2768061
(estimated)
Elevation: 1005 ft. / 306 m (estimated)
Variation: 18E (1985)
From city: 1 mile NW of OROFINO, ID
Time zone: UTC -7 (UTC -8 during Standard Time)
Zip code: 83544

Airport Operations

Airport use: Open to the public
Activation date: 04/1940
Control tower: no
ARTCC: SEATTLE CENTER
FSS: BOISE FLIGHT SERVICE STATION
NOTAMs facility: BOI (NOTAM-D service available)
Attendance: UNATNDD
Wind indicator: lighted
Segmented circle: no
Lights: ACTVT RY 09/27 MIRL - CTAF.

Airport Communications

CTAF/UNICOM: 122.8

Nearby radio navigation aids

VOR radial/distance  VOR name  Freq  Var
MQGr055/25.4NEZ PERCE VOR/DME108.2020E

Airport Services

Fuel available: 100LL
Parking: tiedowns
Airframe service: NONE
Powerplant service: NONE
Bottled oxygen: NONE
Bulk oxygen: NONE

Runway Information

Runway 9/27

Dimensions: 2500 x 60 ft. / 762 x 18 m
Surface: asphalt, in good condition
Weight bearing capacity: 
Single wheel: 17.0
Runway edge lights: medium intensity
RUNWAY 9  RUNWAY 27
Gradient: 0.1%0.1%
Traffic pattern: rightleft
Markings: basic, in good conditionbasic, in good condition
Obstructions: 60 ft. tree, 240 ft. from runway, 100 ft. right of centerline
RWY 09 +50' TREE AT 30', 80' LEFT OF CENTERLINE
50 ft. tree, 200 ft. from runway, 100 ft. right of centerline
+13 FT ROAD AT 0 FT 110 FT R OF CNTRLN.

Airport Ownership and Management from official FAA records

Ownership: Publicly-owned
Owner: CITY OF OROFINO
PO BOX 312
OROFINO, ID 83544
Phone 208-476-4725
Manager: RICK LAAM
AIRPORT RD. NO 1
OROFINO, ID 83544
Phone 208-476-4725

Airport Operational Statistics

Aircraft based on the field: 12
Single engine airplanes: 12
    
Aircraft operations: avg 79/week *
73% transient general aviation
27% local general aviation
* for 12-month period ending 28 September 2015

Additional Remarks

HIGH TERRAIN IN ALL QUADS AROUND ARPT.
TWO 1968 FT MSL (250 FT AGL) RADIO TWRS LOCATED APPROXIMATELY 1 MILE E OF RY 27 300 FT LEFT.
BE ALERT DURING NIGHT OPS DUE TO TERRAIN.

Instrument Procedures

There are no published instrument procedures at S68.

Some nearby airports with instrument procedures:

KLWS - Lewiston-Nez Perce County Airport (31 nm W)
KGIC - Idaho County Airport (34 nm S)
KPUW - Pullman/Moscow Regional Airport (38 nm NW)
KCOE - Coeur d'Alene Airport - Pappy Boyington Field (80 nm N)
KSFF - Felts Field Airport (83 nm NW)
 
Loc | Ops | Rwys | IFR | FBO | Links
Com | Nav | Svcs | Stats | Notes


 
Area around S68 (Orofino Municipal Airport)
 
Road maps at: MapQuest Bing Google
 
Aerial photo
WARNING: Photo may not be current or correct
Aerial photo of S68 (Orofino Municipal Airport)
Photo by Lyle Hendricks
Photo taken 09-May-2010
looking northeast.

Do you have a better or more recent aerial photo of Orofino Municipal Airport that you would like to share? If so, please send us your photo.

 
Sectional chart

 
Airport distance calculator
Flying to Orofino Municipal Airport? Find the distance to fly.

From to S68

Sunrise and sunset
Times for 20-Jul-2018
 Local
(UTC-7)
 Zulu
(UTC)
Morning civil twilight04:3711:37
Sunrise05:1312:13
Sunset20:2903:29
Evening civil twilight21:0604:06

Current date and time
Zulu (UTC)  20-Jul-2018 21:02:37
Local (UTC-7)  20-Jul-2018 14:02:37
 
METAR
KLWS 
31nm W 
202056Z VRB06KT 10SM CLR 29/01 A3000 RMK AO2 SLP147 T02890006 56014
KGIC 
34nm S 
202055Z AUTO 04009G14KT 10SM 26/03 A3005 RMK AO1
KP69 
35nm SE 
202052Z AUTO VRB04KT 31/01 A2994 RMK AO1 SLP115 T03110011 56014
KPUW 
38nm NW 
202053Z AUTO 29009KT 10SM CLR 24/04 A3007 RMK AO2 SLP171 T02390039 58009
TAF
KLWS 
31nm W 
201730Z 2018/2118 VRB04KT P6SM SKC FM202000 32009KT P6SM FEW120 FM210100 VRB04KT 6SM FU HZ FEW020 FEW120 FM210900 VRB02KT P6SM FEW120
KPUW 
38nm NW 
201730Z 2018/2118 27010KT P6SM SKC FM210200 28004KT 6SM FU HZ FEW020 FM210600 VRB02KT P6SM SKC
NOTAMs
Click for the latest NOTAMs
NOTAMs are issued by the DoD/FAA and will open in a separate window not controlled by AirNav.

 

 
 

FBO, Fuel Providers, and Aircraft Ground Support

  
 Business Name 
 
 Contact 
 
 Services / Description 
 
Fuel Prices
 
Comments
  
City of Orofino 208-476-4725
no information available

If you are affiliated with City of Orofino and would like to show here your services, contact info, web link, logo, and more, click here
100LL
FS $4.25 
 Updated 11-Jul-2018
 
   2 read write
FS=Full service
Update Fuel Prices
 

Where to Stay: Hotels, Motels, Resorts, B&Bs, Campgrounds

 The hotels featured here are reported to be very convenient to the Orofino Municipal Airport. If your hotel/inn/B&B/resort is near the Orofino Municipal Airport, provides convenient transportation, or is otherwise attractive to pilots, flight crews, and airport users, consider listing it here.
  
 Business Name 
 
 Contact 
 
 Services / Description 
 
Distance
 
Comments
  
Clearwater Cabin Rental 208-476-7740
[web site]
[email]
Lodging

More info about Clearwater Cabin Rental
5 miles  
   write
Feature A Hotel
 

Would you like to see your business listed on this page?

 If your business provides an interesting product or service to pilots, flight crews, aircraft, or users of the Orofino Municipal Airport, you should consider listing it here.  To start the listing process, click on the button below
 
Add a business
 

Other Pages about Orofino Municipal Airport

Update a link
 
Copyright © AirNav, LLC. All rights reserved. Privacy Policy  Contact